CYLU

Kangiqsualujjuaq (Georges River) Airport

ICAO Code CYLU
IATA Code XGR
Name Kangiqsualujjuaq (Georges River) Airport
Location Kangiqsualujjuaq, Quebec, CA
Elevation 217 Feet / 66.1 Meters
Latitude 58.71138889
Longitude -65.99277778
METAR CYLU 252100Z 28008KT 13SM FEW011 OVC013 01/M01 A2998 RMK ST1ST7 LAST OBS/NEXT 261200UTC SNW CVR/MEDIUM PACK SLP160
Extra information Display Charts and CFS
Display NOTAMS
Runway Length Width Surface Elevation
16 3521 ft 100 ft GRAVEL 158 ft
34 3521 ft 100 ft GRAVEL 217 ft